Home > Time Zones > World Clock > Weather > Germany > Ulm > Past weeks

Flag Weather past 2 weeks in Ulm, Baden-Württemberg, Germany

Now
39 °F

Fog.


Feels Like: 39 °F
Forecast: 42 / 56 °F
Wind: 1 mph from Southwest

Location: Laupheim Airport

Current Time: Nov 23, 2014 at 5:03:43 AM

Latest Report: Nov 23, 2014 at 4:20 AM


Visibility: 0 mi

Pressure: 30.18 "Hg

Humidity: 100%

Dew point: 39 °F

Location of UlmLocation

Historic Weather in Ulm — Graph

°F

Ulm temperature yesterday

Maximum temperature yesterday: 52 °F (at 2:20 PM)
Minimum temperature yesterday: 39 °F (at 3:20 AM)
Average temperature yesterday: 43 °F

Past Weeks' High & Low Weather Summary

 TemperatureHumidityPressure
High54 °F (Nov 8, 3:20 PM)100% (Nov 8, 5:20 AM)30.27 "Hg (Nov 8, 5:20 AM)
Low32 °F (Nov 20, 5:20 AM)62% (Nov 8, 1:20 PM)29.50 "Hg (Nov 15, 11:20 PM)
Average42 °F96%29.88 "Hg
* Reported Nov 8 3:20 AM — Nov 23 3:20 AM, Ulm, Weather by CustomWeather, © 2014

Note: Actual official high and low records may vary slightly from our data, if they occured in-between our weather recording intervals... More about our weather records

Advertising

Ulm weather history for previous 24 hours

 ConditionsComfort  
Time TempWeatherWind HumidityBarometerVisibility
3:20 AM
Nov 23
39 °FFog.1 mph100%30.18 "Hg0 mi
2:20 AM41 °FFog.No wind100%30.18 "Hg0 mi
1:20 AM41 °FFog.2 mph100%30.18 "Hg0 mi
12:20 AM41 °FFog.2 mph100%30.18 "Hg0 mi
11:20 PM
Nov 22
41 °FFog.5 mph100%30.18 "Hg0 mi
10:20 PM41 °FFog.5 mph100%30.18 "Hg0 mi
9:20 PM41 °FFog.6 mph100%30.18 "Hg0 mi
8:20 PM41 °FFog.6 mph100%30.18 "Hg0 mi
7:20 PM41 °FFog.3 mph100%30.15 "Hg0 mi
6:20 PM41 °FFog.7 mph100%30.15 "Hg0 mi
5:46 PM41 °FFog.6 mph100%30.15 "Hg0 mi
5:20 PM43 °FFog.5 mph100%30.15 "Hg2 mi
5:01 PM45 °FFog.5 mph93%30.15 "Hg2 mi
4:20 PM48 °FPartly sunny.5 mph87%30.15 "Hg4 mi
3:20 PM50 °FPartly sunny.6 mph82%30.12 "HgN/A
2:20 PM52 °FScattered clouds.3 mph77%30.15 "HgN/A
1:20 PM50 °FScattered clouds.3 mph76%30.15 "HgN/A
12:20 PM48 °FScattered clouds.2 mph82%30.15 "HgN/A
11:20 AM46 °FPartly sunny.1 mph87%30.18 "Hg6 mi
10:20 AM45 °FBroken clouds.1 mph93%30.18 "Hg5 mi
9:20 AM41 °FFog.2 mph100%30.18 "Hg2 mi
8:20 AM39 °FFog.2 mph100%30.15 "Hg1 mi
7:58 AM39 °FFog.3 mph100%30.15 "Hg1 mi
7:20 AM39 °FFog.2 mph100%30.15 "Hg0 mi
6:20 AM39 °FFog.2 mph100%30.12 "Hg0 mi
5:20 AM39 °FFog.2 mph100%30.12 "Hg0 mi
Weather by CustomWeather, © 2014

See weather overviewHow to use our weather pages